Wind_Speed
12 7 1 1 4 5 1 1 1 2 2 3 7 9 8 6 2 2 10 8 3 4 7 6 5 4 3 3 4 5 5 5 5 7 5 4 2 1 2 2 1 1 2 1 4 5 5 2 1
12 4 1 3 5 3 3 2 6 3 15 22 14 10 6 2 3 7 8 8 5 6 6 6 4 4 3 2 3 4 4 5 6 6 6 3 1 2 3 4 4 4 2 1 2 3 4 2 1
8 3 1 4 4 4 5 3 5 14 20 5 5 8 4 4 5 6 5 9 8 6 8 6 4 3 3 2 2 3 3 3 4 4 4 3 1 3 3 4 3 3 2 3 1 3 4 2 1
7 1 5 4 2 3 5 7 6 11 4 3 12 6 5 3 3 4 7 9 7 7 7 3 3 3 2 2 1 2 2 2 3 3 3 2 3 1 3 5 3 4 6 4 1 1 3 2 2
4 3 4 4 1 1 2 12 16 6 7 8 4 4 5 4 4 5 8 8 7 6 5 3 3 3 3 3 1 1 1 1 1 4 4 3 2 3 4 6 5 5 5 3 2 1 3 3 4
3 3 4 2 0 2 2 9 10 5 9 9 7 8 5 7 6 8 9 8 6 3 4 4 4 5 4 4 4 2 1 1 0 3 4 4 4 5 5 6 6 5 6 6 3 3 4 5 7
4 3 5 5 3 1 4 9 7 9 9 5 14 5 6 11 9 9 9 7 6 4 2 1 3 5 5 5 5 5 4 3 2 2 4 5 5 5 5 5 6 7 7 7 7 6 6 7 7
3 4 4 3 6 6 7 7 9 13 4 14 8 5 5 15 13 12 10 7 6 4 3 1 1 2 4 6 7 7 6 6 6 5 5 6 6 7 7 7 6 8 9 9 8 9 8 8 7
1 4 1 4 6 4 12 5 10 8 14 8 10 5 3 16 16 14 12 10 8 7 4 3 2 3 4 5 6 8 8 8 8 7 7 7 7 8 9 8 8 7 7 8 9 10 11 11 11
3 3 7 3 2 2 6 13 17 9 12 5 11 8 15 17 16 15 13 10 8 7 5 4 4 4 5 6 7 6 10 10 8 9 10 10 10 10 11 11 11 10 9 9 10 11 12 13 12
2 4 3 1 2 5 5 6 9 13 3 14 23 21 21 18 16 13 10 8 5 4 7 8 7 7 8 7 8 8 8 10 9 9 9 9 10 10 11 10 11 11 10 11 11 12 12 12 12
2 1 2 2 4 1 4 4 4 10 3 16 18 21 22 19 16 13 11 10 9 9 9 10 13 13 11 10 10 9 10 10 10 10 10 11 11 11 10 11 12 12 12 13 13 12 12 12 12
2 2 0 1 3 5 2 3 2 4 5 12 21 22 21 18 14 11 9 10 9 9 9 12 12 12 12 13 13 11 11 13 12 12 12 11 11 12 13 14 14 15 14 14 14 15 14 14 13
2 1 1 2 2 4 2 1 3 5 5 10 22 23 20 17 14 12 12 13 11 11 12 13 12 11 11 14 15 14 12 12 13 14 13 13 12 14 14 15 16 17 17 16 16 16 16 17 17
4 2 4 2 1 1 2 5 5 4 7 9 14 19 19 17 14 11 13 14 13 13 13 14 14 14 13 14 16 18 17 16 16 15 15 15 15 13 13 16 17 17 18 19 19 19 19 19 19
4 4 1 2 3 1 4 6 4 5 9 13 11 15 17 15 13 13 15 16 14 14 16 17 16 15 15 14 16 19 20 20 19 18 18 17 17 17 17 16 16 16 19 20 21 21 22 21 21
4 3 4 6 7 2 3 5 5 2 3 9 13 17 17 14 11 13 12 13 13 14 18 20 20 18 17 16 17 19 21 22 22 20 20 21 21 19 19 19 19 18 18 19 20 21 22 21 21
6 4 4 5 3 4 4 9 7 9 11 14 11 9 20 15 14 13 12 11 12 14 17 19 20 20 20 21 21 22 22 23 22 22 22 20 21 18 21 20 19 18 19 20 21 20 22 25 26
5 3 4 3 4 4 6 8 9 21 18 21 24 17 13 14 15 14 13 14 13 15 17 18 19 20 23 23 20 19 20 20 20 20 19 19 18 18 21 18 21 21 19 21 21 23 24 22 23
1 3 4 1 1 5 3 10 10 14 14 25 28 28 22 18 18 16 15 15 15 15 16 16 17 18 15 12 11 12 13 14 13 13 12 13 17 18 18 19 18 19 19 20 21 22 21 21 21
2 3 2 0 3 2 5 7 6 6 16 23 28 30 27 27 22 19 18 16 15 14 13 13 11 10 10 9 8 6 6 7 9 8 11 13 15 16 15 16 18 19 19 20 21 20 19 20 21
4 6 4 3 3 3 2 5 6 4 7 5 9 19 21 24 24 20 19 16 13 11 9 8 7 7 6 4 4 4 6 8 10 11 13 13 13 15 17 19 19 18 16 15 15 15 14 14 15
5 5 5 2 1 2 1 1 7 4 6 6 2 9 13 18 21 21 16 12 10 7 5 4 4 5 5 4 3 6 9 11 12 14 15 15 14 15 15 13 12 12 11 12 12 12 12 12 13
6 6 6 4 2 3 7 7 5 4 4 1 3 9 15 18 19 17 13 10 6 4 2 2 2 3 4 4 3 5 9 12 13 13 14 15 14 12 11 10 10 10 11 11 11 12 13 13 13
4 6 1 2 2 6 1 2 7 7 5 5 11 18 19 19 17 14 11 7 5 4 3 0 2 3 4 4 4 5 7 10 13 14 14 13 11 10 10 10 10 10 11 11 12 12 12 12 12
5 6 5 7 4 4 3 6 5 2 5 6 13 19 18 16 13 11 6 5 5 4 2 2 3 3 5 6 6 7 8 10 10 11 11 11 11 10 10 10 9 9 10 11 12 12 12 11 10
5 6 5 5 2 2 3 6 9 2 6 10 13 18 15 11 9 8 4 4 4 4 2 0 3 4 6 8 9 10 10 10 11 12 12 12 11 11 10 9 8 9 10 11 12 11 10 9 8
5 7 2 2 1 4 3 5 4 2 3 4 6 14 12 9 8 7 5 4 5 5 5 6 7 8 10 11 12 12 12 13 13 13 12 12 11 10 10 9 9 10 11 11 11 10 9 7 6
4 4 3 5 4 4 1 5 5 4 2 8 11 12 9 5 4 6 5 4 7 8 9 9 11 12 13 14 14 15 15 15 14 14 13 12 11 11 10 10 9 9 9 9 9 9 8 7 6
4 5 5 4 4 3 2 5 3 5 5 9 11 8 4 2 2 4 7 9 11 12 14 17 16 16 16 16 16 16 16 16 15 15 14 13 12 12 10 9 8 8 8 8 8 8 8 7 6
Wind_Direction
346 342 301 164 61 65 51 181 321 149 59 58 112 115 118 68 133 182 142 157 153 181 168 155 165 164 149 83 78 72 101 123 133 132 130 129 105 27 348 334 236 243 230 240 206 211 193 185 253
347 348 137 102 88 84 273 225 172 202 130 110 92 95 61 88 98 143 151 154 158 182 172 159 162 170 161 106 90 76 89 108 118 138 178 187 179 9 46 79 101 94 100 51 147 166 184 193 212
348 11 80 88 104 151 173 206 168 141 141 114 101 80 92 121 135 148 147 161 166 171 157 159 164 177 168 132 101 88 83 119 128 123 129 170 168 75 51 61 96 189 315 343 210 169 180 202 190
356 27 63 81 141 207 181 181 163 140 211 167 124 69 96 156 148 169 158 160 157 156 152 164 183 196 189 165 125 97 78 101 176 162 142 134 140 268 337 349 0 336 320 326 315 183 145 192 229
0 53 56 76 13 338 198 163 163 144 146 143 144 155 113 136 162 173 156 152 157 169 183 204 217 217 222 214 204 169 124 92 175 196 202 201 223 282 298 322 335 337 340 6 358 233 221 245 271
24 59 66 127 216 11 67 167 151 128 141 144 116 120 142 148 148 161 149 150 140 146 183 206 227 227 232 234 237 241 236 252 269 212 213 225 249 284 281 291 316 343 355 345 306 302 279 278 280
83 69 166 158 162 109 184 182 167 143 142 157 145 112 159 171 156 166 160 164 168 186 173 187 227 233 241 245 248 248 248 253 257 249 241 241 252 269 276 285 296 310 328 341 345 328 302 295 290
53 87 125 187 179 211 173 156 172 151 151 149 163 168 202 176 166 172 174 180 196 215 224 240 264 262 253 262 259 253 251 252 257 259 260 258 258 265 267 277 289 290 301 313 320 324 323 320 309
47 63 186 210 159 219 166 141 157 159 141 163 189 185 207 171 173 179 184 189 205 215 226 249 275 286 286 291 286 260 247 248 252 257 260 263 267 269 269 273 277 287 288 293 303 309 310 308 308
88 116 208 212 239 300 212 165 160 151 150 146 175 187 167 174 181 187 192 199 213 220 236 251 264 299 305 313 312 298 257 250 249 256 260 263 264 266 267 263 266 271 279 288 295 297 303 298 301
140 181 198 251 328 280 229 204 176 151 207 182 169 161 167 177 183 192 198 209 232 256 246 256 259 273 283 296 309 305 303 309 265 264 259 262 263 262 261 265 264 270 278 288 291 290 295 299 298
155 251 224 4 358 70 158 189 198 175 208 199 186 178 176 181 186 195 210 228 242 244 248 257 260 266 271 272 284 300 294 299 316 311 275 268 269 269 280 277 276 278 288 293 292 290 290 292 293
154 222 238 71 44 48 67 58 297 213 143 181 182 176 179 184 194 206 224 229 233 248 264 264 253 259 265 263 267 278 293 287 293 298 302 282 271 271 275 276 278 279 284 290 287 289 290 292 300
104 236 26 307 38 27 50 296 10 196 137 151 175 177 182 188 195 212 226 236 249 254 263 255 248 257 268 258 256 264 276 281 279 287 294 295 288 278 279 279 280 282 284 287 286 286 289 292 297
91 82 359 273 246 96 23 309 233 153 176 185 181 182 188 197 208 231 231 233 244 245 251 254 252 265 272 264 252 249 257 263 267 276 280 274 276 285 296 289 280 281 280 278 280 285 288 290 294
80 55 114 286 186 222 115 252 267 259 256 233 217 213 205 200 220 233 235 238 248 252 247 248 254 260 269 267 256 254 256 259 261 260 262 269 270 280 284 289 290 285 277 280 282 284 285 288 293
358 209 207 319 210 142 153 246 256 248 301 277 251 231 213 212 222 228 229 237 240 247 240 237 245 253 262 265 257 254 257 260 261 258 251 248 260 267 269 271 277 276 274 276 279 279 283 284 286
185 185 219 213 238 200 189 246 258 250 255 272 290 278 223 223 219 220 228 235 236 237 235 238 247 255 261 265 262 259 255 254 257 259 258 257 252 260 269 269 274 275 279 278 282 288 287 285 284
140 155 200 219 230 170 234 258 255 262 265 267 270 263 240 215 222 217 221 226 230 235 240 247 256 267 274 275 267 255 251 250 251 254 257 257 255 265 268 273 274 277 275 281 279 285 285 286 287
14 171 244 297 71 167 292 274 261 260 251 250 251 251 237 222 219 221 223 227 236 243 252 264 274 277 277 279 268 252 244 247 248 249 252 253 262 270 272 274 279 281 282 281 283 283 282 284 283
220 201 220 267 354 32 348 279 273 274 253 255 250 250 247 231 221 222 221 226 235 243 257 272 279 284 290 294 277 256 230 234 222 253 267 262 267 267 269 277 280 280 277 275 274 274 273 272 271
213 207 163 142 61 236 22 286 302 285 287 283 265 231 226 220 216 213 214 220 226 242 256 275 296 307 314 306 262 215 231 236 252 262 261 262 268 276 279 276 276 275 276 280 277 277 278 277 275
212 140 158 169 119 355 276 288 271 294 278 246 207 191 188 196 198 200 199 206 219 228 248 274 297 310 317 310 268 239 239 249 252 257 261 265 268 269 275 273 272 274 278 281 286 288 287 283 278
134 88 57 54 84 299 207 179 262 222 235 37 140 172 175 174 177 183 189 197 209 220 234 253 270 320 316 316 295 256 248 253 257 251 254 259 266 269 268 265 267 273 279 283 285 287 287 286 284
111 107 36 342 238 232 17 198 262 266 272 235 179 167 163 166 172 181 181 190 195 198 182 267 336 341 316 316 302 279 263 259 257 257 260 263 262 259 259 264 269 274 280 284 287 287 286 284 280
176 154 155 200 198 264 88 233 248 239 6 315 178 170 167 170 175 178 179 190 197 177 134 85 31 320 313 297 283 263 252 251 256 259 257 255 255 258 262 266 275 285 291 293 291 286 281 276 272
187 200 160 106 39 48 226 285 300 120 53 84 133 163 168 173 182 191 215 215 186 182 175 237 265 285 286 284 280 276 274 266 256 251 252 253 256 260 265 269 278 287 291 290 286 282 274 267 264
148 149 99 28 173 248 276 280 245 315 153 102 140 160 173 185 196 219 241 222 204 211 233 252 263 279 284 283 279 274 268 266 265 265 262 262 264 266 269 275 284 290 293 290 285 278 272 264 258
147 178 175 130 154 186 244 265 226 302 268 168 174 173 177 192 223 251 270 265 244 247 257 265 266 274 279 273 272 271 271 270 266 265 265 265 265 265 269 278 285 288 287 284 278 269 258 249 249
203 195 154 151 185 232 165 270 332 347 74 137 159 159 167 208 263 274 270 265 268 270 270 271 267 271 270 270 270 270 272 271 269 268 265 264 263 265 269 273 278 281 281 275 265 260 252 249 254
Height
1521 1520 1520 1520 1531 1538 1552 1546 1540 1541 1540 1539 1538 1540 1544 1546 1548 1558 1551 1552 1553 1555 1555 1556 1557 1558 1558 1558 1558 1557 1557 1557 1557 1558 1558 1559 1559 1559 1559 1558 1558 1558 1558 1557 1557 1557 1558 1558 1557
1521 1520 1521 1520 1541 1555 1556 1542 1543 1540 1540 1540 1541 1542 1545 1549 1548 1549 1550 1551 1553 1555 1556 1557 1558 1558 1559 1559 1559 1558 1558 1558 1558 1559 1559 1560 1560 1560 1560 1559 1559 1559 1559 1558 1559 1559 1559 1559 1559
1521 1520 1521 1528 1546 1554 1552 1541 1540 1540 1540 1541 1543 1545 1547 1549 1549 1549 1550 1551 1553 1555 1556 1558 1559 1559 1560 1560 1560 1560 1559 1559 1560 1560 1560 1561 1561 1561 1561 1561 1561 1561 1560 1560 1559 1559 1560 1560 1560
1521 1522 1524 1536 1540 1538 1537 1538 1539 1541 1542 1542 1544 1547 1548 1549 1550 1550 1551 1552 1554 1556 1557 1559 1559 1560 1561 1561 1561 1561 1560 1560 1561 1561 1561 1561 1562 1562 1562 1562 1562 1562 1561 1560 1560 1560 1560 1560 1560
1521 1522 1535 1542 1540 1536 1535 1535 1538 1540 1542 1543 1544 1549 1549 1549 1550 1551 1552 1553 1555 1556 1557 1559 1560 1560 1561 1561 1561 1561 1562 1561 1561 1561 1562 1562 1562 1562 1562 1562 1562 1562 1561 1561 1561 1561 1561 1561 1561
1523 1525 1544 1549 1541 1537 1535 1536 1537 1538 1541 1543 1545 1548 1550 1550 1551 1552 1553 1555 1556 1557 1558 1559 1559 1560 1561 1562 1562 1562 1562 1562 1562 1562 1562 1562 1563 1563 1563 1562 1562 1562 1561 1561 1561 1561 1561 1560 1560
1526 1533 1544 1543 1541 1538 1535 1537 1538 1539 1541 1543 1545 1549 1550 1550 1551 1552 1554 1556 1557 1558 1558 1559 1559 1560 1561 1561 1562 1562 1562 1562 1562 1563 1562 1562 1562 1562 1562 1562 1562 1562 1562 1562 1561 1561 1561 1560 1559
1529 1533 1542 1542 1545 1540 1534 1535 1537 1538 1542 1544 1546 1548 1549 1549 1551 1553 1554 1556 1557 1559 1559 1560 1560 1560 1561 1561 1562 1562 1562 1562 1562 1562 1562 1562 1562 1562 1562 1562 1562 1561 1561 1561 1561 1561 1560 1559 1559
1531 1542 1547 1540 1542 1534 1532 1533 1537 1538 1539 1542 1544 1546 1547 1549 1551 1553 1554 1556 1558 1559 1560 1560 1561 1561 1561 1561 1562 1561 1561 1561 1561 1561 1562 1562 1562 1562 1561 1561 1561 1560 1560 1560 1560 1559 1559 1558 1558
1531 1543 1540 1534 1534 1533 1532 1530 1532 1537 1538 1540 1542 1544 1546 1549 1551 1553 1554 1556 1557 1559 1560 1560 1561 1561 1561 1561 1561 1560 1560 1560 1560 1560 1560 1560 1561 1561 1560 1560 1560 1559 1559 1559 1558 1558 1557 1556 1556
1533 1539 1534 1533 1533 1533 1533 1533 1533 1533 1538 1535 1536 1541 1544 1547 1550 1553 1554 1555 1557 1558 1559 1560 1560 1560 1560 1560 1560 1560 1559 1559 1558 1558 1558 1558 1558 1558 1559 1558 1558 1558 1558 1557 1556 1556 1555 1554 1554
1534 1533 1533 1533 1533 1532 1533 1534 1533 1533 1533 1535 1536 1538 1542 1546 1549 1552 1552 1554 1555 1556 1558 1558 1558 1558 1558 1558 1558 1558 1558 1558 1558 1557 1557 1556 1557 1557 1557 1557 1557 1556 1556 1556 1555 1554 1553 1552 1551
1533 1533 1533 1533 1533 1534 1534 1535 1535 1534 1534 1534 1537 1538 1541 1545 1548 1551 1552 1553 1554 1554 1555 1556 1556 1556 1557 1557 1557 1557 1557 1557 1557 1557 1556 1555 1555 1555 1555 1555 1555 1555 1554 1554 1553 1552 1551 1550 1550
1533 1533 1534 1534 1534 1534 1534 1535 1535 1535 1535 1535 1536 1538 1541 1544 1547 1549 1550 1551 1552 1553 1553 1553 1553 1554 1554 1554 1555 1555 1555 1556 1556 1555 1555 1554 1554 1553 1553 1553 1553 1553 1553 1553 1551 1551 1550 1550 1548
1533 1536 1535 1535 1534 1535 1534 1536 1534 1536 1536 1538 1539 1540 1541 1544 1546 1547 1548 1548 1549 1550 1551 1551 1551 1552 1552 1552 1552 1552 1553 1553 1553 1553 1553 1552 1552 1551 1552 1551 1550 1550 1550 1550 1549 1549 1548 1547 1547
1536 1539 1543 1535 1534 1534 1535 1541 1532 1533 1535 1537 1539 1539 1540 1542 1543 1543 1544 1545 1546 1547 1548 1549 1549 1549 1548 1548 1549 1549 1549 1549 1549 1550 1550 1550 1550 1549 1549 1548 1547 1548 1547 1547 1546 1546 1545 1544 1543
1541 1548 1546 1541 1534 1535 1537 1539 1530 1530 1531 1533 1536 1537 1538 1539 1539 1539 1540 1541 1543 1544 1545 1546 1546 1546 1546 1545 1545 1545 1545 1545 1545 1545 1545 1546 1546 1546 1545 1545 1545 1543 1543 1542 1542 1542 1542 1541 1540
1543 1545 1543 1542 1534 1536 1538 1536 1529 1529 1530 1531 1532 1533 1535 1536 1535 1536 1537 1539 1540 1542 1543 1543 1543 1543 1543 1543 1542 1540 1540 1540 1541 1541 1541 1542 1542 1542 1542 1542 1541 1540 1540 1539 1539 1539 1538 1537 1535
1536 1539 1539 1535 1531 1535 1537 1535 1529 1525 1526 1526 1527 1530 1531 1532 1532 1533 1535 1537 1538 1539 1540 1540 1540 1540 1539 1538 1536 1534 1535 1536 1536 1537 1537 1538 1538 1539 1539 1538 1538 1537 1536 1535 1534 1534 1534 1533 1531
1535 1536 1538 1532 1531 1534 1533 1533 1525 1521 1518 1517 1518 1521 1525 1527 1528 1530 1532 1534 1536 1537 1538 1538 1537 1536 1534 1534 1531 1530 1532 1533 1533 1534 1535 1535 1536 1536 1536 1535 1534 1533 1532 1532 1531 1530 1530 1529 1528
1537 1539 1537 1537 1534 1534 1536 1531 1523 1513 1510 1510 1511 1513 1517 1521 1524 1527 1529 1532 1534 1535 1535 1535 1534 1534 1531 1530 1530 1529 1531 1532 1533 1533 1534 1534 1534 1534 1533 1532 1532 1531 1530 1528 1527 1527 1526 1525 1524
1540 1534 1535 1538 1541 1548 1539 1549 1524 1512 1509 1506 1504 1506 1509 1514 1519 1524 1527 1530 1532 1533 1533 1532 1531 1531 1530 1529 1528 1529 1531 1531 1531 1532 1533 1533 1531 1531 1531 1530 1528 1527 1525 1524 1523 1522 1522 1521 1521
1533 1532 1536 1539 1543 1544 1544 1548 1527 1516 1508 1504 1504 1505 1508 1512 1516 1521 1526 1529 1530 1531 1531 1530 1530 1530 1529 1529 1528 1528 1529 1530 1529 1530 1531 1531 1529 1528 1528 1527 1526 1525 1523 1521 1520 1520 1519 1519 1518
1528 1534 1540 1546 1550 1563 1543 1543 1530 1515 1506 1504 1505 1506 1508 1512 1517 1521 1525 1527 1528 1529 1529 1530 1529 1529 1530 1529 1528 1528 1527 1528 1527 1527 1528 1528 1527 1526 1526 1525 1524 1523 1521 1520 1518 1517 1516 1515 1514
1528 1537 1568 1569 1556 1557 1539 1544 1527 1507 1502 1502 1503 1506 1510 1514 1518 1521 1524 1525 1527 1528 1529 1529 1529 1529 1530 1528 1527 1527 1526 1526 1526 1525 1525 1525 1525 1525 1524 1523 1522 1521 1519 1518 1517 1515 1514 1513 1512
1528 1531 1552 1556 1557 1549 1544 1537 1515 1504 1502 1502 1503 1507 1511 1515 1518 1521 1523 1524 1526 1528 1529 1529 1528 1530 1529 1528 1526 1525 1524 1524 1525 1524 1523 1523 1523 1523 1523 1521 1520 1519 1518 1516 1515 1514 1512 1511 1510
1526 1529 1532 1546 1573 1558 1541 1526 1508 1503 1504 1506 1508 1510 1513 1516 1518 1521 1523 1524 1525 1527 1528 1528 1529 1528 1527 1526 1526 1525 1525 1524 1523 1522 1521 1521 1521 1521 1521 1520 1518 1517 1515 1514 1512 1511 1510 1509 1508
1517 1523 1535 1551 1562 1568 1537 1530 1516 1503 1505 1510 1511 1513 1515 1516 1518 1520 1522 1522 1524 1526 1527 1527 1527 1527 1526 1525 1525 1524 1523 1522 1522 1522 1521 1521 1520 1519 1519 1518 1516 1515 1514 1512 1510 1509 1509 1508 1508
1518 1521 1523 1530 1543 1543 1546 1525 1513 1507 1504 1508 1510 1513 1515 1517 1519 1521 1522 1522 1523 1524 1525 1524 1525 1524 1524 1524 1523 1522 1520 1520 1519 1519 1519 1519 1518 1517 1517 1516 1515 1513 1512 1511 1510 1508 1507 1506 1506
1508 1513 1517 1527 1534 1543 1538 1527 1509 1508 1505 1507 1511 1513 1516 1518 1520 1522 1523 1523 1523 1522 1521 1521 1521 1521 1521 1520 1519 1518 1517 1517 1517 1516 1516 1516 1516 1515 1514 1513 1512 1512 1511 1510 1510 1508 1507 1505 1504